Regional Weather Roundup
Issued by NWS Huntsville, AL

Home | Current Version | Previous Version | Text Only | Print | Product List | Glossary On
Versions: 1 2 3 4 5 6 7 8 9 10 11 12 13 14 15 16 17 18 19 20 21 22 23 24 25 26 27
000
ASUS44 KHUN 271910
RWRHUN

WEATHER ROUNDUP FOR THE TENNESSEE VALLEY
NATIONAL WEATHER SERVICE HUNTSVILLE AL
200 PM CDT TUE JUN 27 2017

ALZ001>004-272000-
NORTHWEST ALABAMA

CITY           SKY/WX    TMP DP  RH WIND       PRES   REMARKS
SHOALS AIRPORT SUNNY     82  57  42 CALM      30.10F
$$

ALZ005>007-016-272000-
NORTH CENTRAL ALABAMA

CITY           SKY/WX    TMP DP  RH WIND       PRES   REMARKS
DECATUR AP     SUNNY     80  60  50 N8        30.10F
HUNTSVILLE AP  MOSUNNY   83  58  42 N13       30.09F
MERIDIANVILLE  SUNNY     77  54  44 N8        30.11F
VINEMONT AP    FAIR      79  56  44 N7        30.13S
$$

ALZ008>010-272000-
NORTHEAST ALABAMA

CITY           SKY/WX    TMP DP  RH WIND       PRES   REMARKS
ALBERTVILLE    SUNNY     81  64  57 E6        30.10S
FORT PAYNE     SUNNY     79  52  38 N7        30.09S
SCOTTSBORO AP  SUNNY     81  55  41 NE8G16    30.10F
SCOTTSBORO HCN   N/A     79 N/A N/A MISG        N/A
VALLEY HEAD      N/A     79 N/A N/A MISG        N/A
$$

TNZ076-096-097-272000-
SOUTHEASTERN MIDDLE TENNESSEE

CITY           SKY/WX    TMP DP  RH WIND       PRES   REMARKS
TULLAHOMA      NOT AVBL
WINCHESTER     SUNNY     77  52  41 N6        30.12F
$$

...SURROUNDING SITES...

CITY           SKY/WX    TMP DP  RH WIND       PRES   REMARKS
ATLANTA        MOSUNNY   83  55  38 NW13      30.08F
ANNISTON       MOSUNNY   85  59  41 N10       30.07F
BIRMINGHAM     MOSUNNY   85  60  42 NE10      30.09F
CHATTANOOGA    MOSUNNY   79  52  38 N8        30.11F
CORINTH        FAIR      81  61  50 CALM      30.09F
DALTON         SUNNY     79  57  47 N9        30.10F
GADSDEN        SUNNY     83  63  50 VRB7      30.08F
GOLDEN TRNGL   SUNNY     86  61  42 NE7       30.03
JACKSON TN     SUNNY     81  63  54 CALM      30.10F
MEMPHIS        MOSUNNY   84  61  45 CALM      30.08F
NASHVILLE      MOSUNNY   82  54  37 NE9       30.11F
OXFORD MS      FAIR      82  59  44 E6        30.10F
ROME           SUNNY     84  56  38 N8        30.08F
SAVANNAH       SUNNY     79  61  53 VRB5      30.09F
SELMER         SUNNY     77  63  61 CALM      30.10F
TUPELO         SUNNY     84  61  45 VRB5      30.08F
TUSCALOOSA     SUNNY     86  62  44 NE9       30.06F
$$

...GULF COAST WEATHER...

CITY           SKY/WX    TMP DP  RH WIND       PRES   REMARKS
GULFPORT       CLOUDY    85  67  54 N6        30.01F
PASCAGOULA     CLOUDY    86  64  47 NE3       30.01F
MOBILE         CLOUDY    85  68  56 NE8       30.03F
GULF SHORES    CLOUDY    83  72  67 CALM      30.02S
PENSACOLA      PTSUNNY   84  69  60 CALM      30.00S
DESTIN         CLOUDY    87  73  62 SE6       30.00  HX  94
PANAMA CITY    CLOUDY    83  70  64 W6        29.99F
APPALACHICOLA  CLOUDY    90  74  59 N3        29.97F HX  99
$$





USA.gov is the U.S. government's official web portal to all federal, state and local government web resources and services.